Tracking 30298 objects as of 27-Apr-2025
HD Live streaming from Space Station
objects crossing your sky now

COSMOS 397 DEB

Track COSMOS 397 DEB now!
10-day predictions


NORAD ID: 5018
Int'l Code: 1971-015M
Perigee: 577.4 km
Apogee: 2,116.8 km
Inclination: 65.7 °
Period: 112.5 minutes
Semi major axis: 7718 km
RCS: 0.1181 m2 (medium)
Launch date: February 25, 1971
Source: Commonwealth of Independent States (former USSR) (CIS)
Launch site: TYURATAM MISSILE AND SPACE COMPLEX (TTMTR)

Note: This is SATELLITE DEBRIS
Your satellite tracking list
Your tracking list is empty




NASA's NSSDC Master Catalog

Two Line Element Set (TLE):
1  5018U 71015M   25116.88420215  .00000100  00000-0  83900-4 0  9998
2  5018  65.7117 295.2504 0997248  16.1001 346.9408 12.80365743526015
Source of the keplerian elements: AFSPC